Location: Wiesbaden
(50.0830°N, 8.2500°E)
Time: 05:52:13
(UTC+01:00)

ISS - Pass Details

Date: 05 December 2019
Orbit: 411 x 421 km, 51.6° (Epoch: 15 December)

Event Time Altitude Azimuth Distance (km) Brightness Sun altitude
Rises 17:35:10 0° 281° (WNW) 2,357 1.1 -10.5°
Reaches altitude 10° 17:37:16 10° 284° (WNW) 1,496 -0.1 -10.9°
Maximum altitude 17:40:37 72° 9° (N) 443 -3.8 -11.4°
Enters shadow 17:43:04 17° 93° (E) 1,139 -2.1 -11.7°
